This demonstration page uses our WeatherBlox Daily Observations layout. Learn more.

Left ArrowRight Arrow

39.29038, -76.61219

Hourly Observations for February 26, 2019

Temp ( °F °C ) Dew Point ( °F °C ) Humidity (%) Winds ( mph kmh ) Pressure ( in mb ) Visibility ( mi km ) Precip ( " mm )
12:54 am 00:54 undefined 37 2.8 3 -16.1 24 24 undefined N/A 30.33 1027 N/A 0.00 0.00
1:54 am 01:54 undefined 37 2.8 4 -15.6 25 25 undefined N/A 30.35 1028 N/A 0.00 0.00
2:54 am 02:54 undefined 36 2.2 5 -15 27 27 undefined N/A 30.36 1028 N/A 0.00 0.00
3:54 am 03:54 undefined 35 1.7 8 -13.3 32 32 undefined N/A 30.36 1028 N/A 0.00 0.00
4:54 am 04:54 undefined 34 1.1 7 -13.9 32 32 undefined N/A 30.38 1029 N/A 0.00 0.00
5:54 am 05:54 undefined 35 1.7 8 -13.3 32 32 undefined N/A 30.40 1029 N/A 0.00 0.00
6:54 am 06:54 undefined 36 2.2 8 -13.3 31 31 undefined N/A 30.41 1030 N/A 0.00 0.00
7:54 am 07:54 undefined 35 1.7 11 -11.7 37 37 undefined N/A 30.43 1031 N/A 0.00 0.00
8:54 am 08:54 undefined 37 2.8 9 -12.8 31 31 undefined N/A 30.46 1031 N/A 0.00 0.00
9:54 am 09:54 undefined 41 5 8 -13.3 25 25 undefined N/A 30.45 1031 N/A 0.00 0.00
10:54 am 10:54 undefined 43 6.1 8 -13.3 24 24 undefined N/A 30.41 1030 N/A 0.00 0.00
11:54 am 11:54 undefined 45 7.2 7 -13.9 21 21 undefined N/A 30.40 1029 N/A 0.00 0.00
12:54 pm 12:54 undefined 47 8.3 9 -12.8 21 21 undefined N/A 30.38 1029 N/A 0.00 0.00
1:54 pm 13:54 undefined 49 9.4 12 -11.1 22 22 undefined N/A 30.35 1028 N/A 0.00 0.00
2:54 pm 14:54 undefined 51 10.6 13 -10.6 22 22 undefined N/A 30.32 1027 N/A 0.00 0.00
3:54 pm 15:54 undefined 49 9.4 12 -11.1 22 22 undefined N/A 30.32 1027 N/A 0.00 0.00
4:54 pm 16:54 undefined 48 8.9 14 -10 25 25 undefined N/A 30.31 1026 N/A 0.00 0.00
5:54 pm 17:54 undefined 46 7.8 14 -10 27 27 undefined N/A 30.33 1027 N/A 0.00 0.00
6:54 pm 18:54 undefined 44 6.7 16 -8.9 32 32 undefined N/A 30.36 1028 N/A 0.00 0.00
7:54 pm 19:54 undefined 42 5.6 18 -7.8 38 38 undefined N/A 30.38 1029 N/A 0.00 0.00
8:54 pm 20:54 undefined 41 5 19 -7.2 41 41 undefined N/A 30.40 1029 N/A 0.00 0.00
9:54 pm 21:54 undefined 39 3.9 19 -7.2 45 45 undefined N/A 30.42 1030 N/A 0.00 0.00
10:54 pm 22:54 undefined 38 3.3 18 -7.8 44 44 undefined N/A 30.42 1030 N/A 0.00 0.00
11:54 pm 23:54 undefined 37 2.8 18 -7.8 46 46 undefined N/A 30.41 1030 N/A 0.00 0.00

Powered by AerisWeather